Theta_e
303 303 303 303 303 303 304 305 306 306 306 306 306 306 307 308 308 309 309 309 309 309 309 310 310 310 310 310 309 309 308 309 309 307 306 306 307 307 307 307 307 308 310 311 311 310 309 307 308 309 311 311 310 311 311 312 311 311 313 312 313 316 314 316 321 315 312 316 315 311 311 314 318 314 312 313 312 312 312 312 312 312 312 312 312 311 311 311
303 303 303 303 303 304 305 306 307 307 307 307 307 307 308 308 308 309 309 309 309 309 310 310 310 310 310 310 309 309 309 311 310 306 305 306 306 306 307 306 306 307 307 307 308 307 307 307 307 308 310 310 310 310 311 312 310 313 315 312 318 321 313 311 314 311 310 313 311 309 310 311 314 312 311 313 312 310 312 313 311 312 312 312 312 312 311 311
303 303 303 302 303 305 306 307 307 308 308 308 308 308 308 309 309 309 309 309 309 310 310 310 310 310 310 310 309 308 310 311 309 306 306 306 306 306 306 306 306 306 306 306 307 307 307 308 308 308 309 309 310 310 311 312 311 311 311 315 324 321 313 309 309 309 309 310 308 307 309 310 311 310 310 312 311 310 312 312 310 311 312 311 312 312 312 311
303 303 302 303 304 306 307 307 308 308 308 309 309 309 309 309 309 309 309 310 310 309 309 309 309 310 310 309 309 308 310 310 308 306 307 306 306 306 306 306 307 306 307 307 307 307 308 309 309 309 309 309 309 310 311 311 312 310 311 320 320 311 311 311 308 309 309 309 308 307 308 309 309 310 311 310 311 313 311 310 310 310 310 310 310 311 312 312
303 302 302 304 306 307 308 308 308 309 309 309 309 309 309 309 310 310 310 310 309 308 309 309 309 309 309 308 309 309 310 312 309 307 308 307 306 307 307 307 307 307 308 308 308 308 308 309 308 309 309 309 309 310 310 310 310 311 312 314 311 306 309 311 309 310 309 309 308 307 309 309 309 309 310 310 312 314 311 310 310 309 310 310 310 310 311 311
303 302 303 306 307 308 308 308 308 309 309 309 309 309 309 309 309 309 310 309 308 308 309 310 310 310 310 309 309 310 310 311 308 307 308 307 307 307 307 308 308 308 308 309 309 308 308 308 309 308 308 309 309 309 311 311 310 312 313 308 307 307 308 309 309 309 309 308 308 308 309 308 308 309 309 309 311 311 310 310 310 309 310 310 310 310 310 310
303 303 305 307 308 308 308 308 309 309 309 309 309 309 309 309 309 310 309 309 308 309 310 311 311 311 311 310 311 311 308 307 307 307 308 307 308 308 308 308 308 309 309 309 309 309 309 308 309 308 308 310 310 309 311 312 309 312 315 310 309 309 308 310 309 308 308 308 308 308 308 307 308 310 309 308 309 310 309 310 309 309 309 309 309 309 310 310
304 305 307 308 308 308 308 309 309 310 309 309 309 309 309 309 310 310 309 309 308 309 311 311 311 311 310 311 312 311 307 307 308 307 308 308 308 308 308 308 309 309 309 310 310 310 309 309 310 309 309 310 309 310 310 311 311 312 315 312 310 310 309 310 309 309 309 308 308 308 307 307 308 308 307 307 310 309 309 309 309 309 308 308 309 309 309 309
305 307 308 308 308 308 309 309 310 309 309 309 309 309 309 309 309 309 309 308 309 310 311 311 311 311 309 310 311 310 308 308 308 308 308 308 309 309 309 309 309 309 309 310 310 310 310 309 310 310 311 310 310 312 310 311 314 312 312 310 309 309 309 309 309 309 309 308 308 308 307 307 307 307 307 308 310 310 309 309 310 309 309 309 309 309 309 308
306 308 308 308 308 309 309 310 310 309 309 309 309 309 309 308 308 308 308 309 310 311 311 311 312 311 309 309 310 310 309 309 308 308 308 308 309 309 310 310 310 310 309 310 310 309 309 310 311 311 310 310 310 312 310 311 312 311 309 309 308 308 308 308 308 308 308 308 307 308 309 308 306 307 309 310 309 309 309 310 310 310 309 309 309 309 309 309
308 308 308 308 308 309 310 310 310 310 310 309 309 309 309 308 308 308 309 310 310 311 312 312 312 311 310 309 310 310 310 310 309 309 309 309 310 310 310 311 310 310 310 310 310 309 309 310 310 310 310 310 310 310 310 310 310 309 308 311 310 307 308 307 307 307 306 308 307 307 309 306 305 308 310 310 309 309 309 309 309 309 309 308 309 309 309 309
308 308 308 309 309 310 310 310 310 310 310 310 310 310 309 309 309 308 309 310 311 312 312 313 312 311 310 310 310 310 310 309 309 309 309 310 310 310 310 310 311 310 310 310 310 310 310 310 310 310 310 311 312 310 310 310 309 309 308 314 317 312 312 308 305 306 305 308 308 307 310 309 309 311 310 308 309 309 308 308 308 308 308 308 309 309 309 309
308 308 308 309 310 310 310 310 310 310 310 310 310 310 310 310 309 308 309 310 311 312 312 313 313 311 310 310 310 310 309 308 308 308 309 310 310 310 310 310 310 310 311 310 311 311 311 311 310 311 311 311 312 310 310 308 308 310 308 313 319 316 315 308 304 307 306 308 308 308 313 314 311 310 308 308 308 308 307 308 308 309 309 310 310 310 310 310
308 309 309 310 310 310 310 310 310 310 311 311 310 311 310 310 310 310 310 310 311 311 312 313 313 312 311 310 310 309 309 308 308 308 309 310 310 310 310 310 310 310 311 311 311 311 310 312 311 310 311 309 308 310 314 312 312 314 311 315 315 312 315 310 303 306 308 309 308 308 313 315 311 309 308 308 307 306 306 307 308 309 310 310 311 311 311 311
309 309 310 310 310 310 310 310 310 311 311 311 310 311 310 310 310 310 310 311 312 312 313 313 312 312 311 310 310 309 309 309 308 308 309 310 310 311 310 311 311 311 311 311 311 311 311 312 311 310 309 308 309 316 322 321 319 317 314 319 315 310 314 311 304 304 309 310 307 308 314 316 312 310 309 308 307 306 304 306 308 309 310 311 311 311 311 311
309 309 310 310 310 310 310 310 311 311 311 310 310 311 311 310 310 310 312 312 312 312 312 312 312 312 311 310 310 309 309 309 309 309 310 310 311 311 312 312 312 312 311 312 312 311 311 312 311 309 308 310 311 316 326 325 322 317 312 314 315 312 312 311 307 303 305 308 308 309 312 314 312 309 309 308 307 305 304 305 307 308 310 311 311 312 311 311
309 310 310 310 310 310 310 310 310 310 310 310 310 311 311 311 311 311 312 312 312 311 311 311 311 311 311 309 309 309 309 309 308 309 310 311 312 312 313 313 312 312 312 312 312 311 311 311 311 309 307 310 309 314 327 323 319 318 313 314 314 311 310 312 311 305 304 308 310 310 309 310 311 307 306 308 307 305 304 305 306 308 309 310 311 311 311 311
309 310 311 310 310 310 310 310 310 311 310 310 310 311 311 311 311 311 311 312 312 312 311 310 311 312 311 310 310 309 308 308 308 309 311 311 312 311 312 313 310 311 311 312 312 311 310 307 310 312 309 310 311 314 321 315 312 316 314 315 315 312 310 311 312 308 307 309 307 308 310 310 309 306 304 306 307 304 304 305 306 308 309 310 311 311 311 311
309 311 311 310 310 310 311 311 312 313 312 311 310 310 310 309 309 310 310 311 311 311 311 309 310 311 310 310 309 308 308 307 307 309 311 311 311 310 312 312 310 310 311 313 313 310 308 309 313 317 313 312 312 311 312 309 310 313 312 313 314 313 311 309 311 309 305 308 310 309 311 310 308 307 306 306 306 304 304 306 308 309 309 310 311 311 311 310
310 311 310 310 311 311 312 312 312 312 312 312 311 311 310 310 311 311 309 309 309 309 310 309 309 309 309 310 309 308 308 307 307 308 310 311 310 309 311 311 311 312 313 315 317 309 307 314 316 314 314 312 311 310 309 308 308 310 312 313 312 311 310 307 309 308 303 308 315 311 309 309 308 309 306 303 305 304 303 304 306 308 308 309 310 310 310 310
310 311 311 310 310 312 312 311 310 310 311 311 311 312 311 311 313 312 309 309 309 308 309 309 309 309 309 310 309 308 308 307 307 306 308 309 310 310 310 312 314 313 310 308 311 309 309 313 313 312 313 310 309 308 308 309 309 310 311 312 312 310 310 306 305 307 303 305 313 310 308 310 308 309 307 303 305 305 302 301 304 308 308 309 310 309 309 309
311 310 311 310 311 311 310 310 310 309 310 310 310 311 310 311 312 311 310 310 309 309 308 308 309 309 309 310 309 308 307 307 308 306 307 308 310 311 309 312 318 315 310 309 312 315 314 312 311 310 306 305 308 308 308 310 310 309 308 309 310 309 309 309 307 307 305 304 312 311 307 310 309 311 310 305 305 305 302 303 304 306 307 307 308 308 309 309
311 311 311 310 311 311 310 310 310 309 309 309 310 309 309 310 310 311 311 310 309 309 309 308 308 308 309 309 309 309 307 306 307 305 306 308 309 310 309 311 318 318 315 316 316 317 314 310 308 304 303 307 311 310 309 310 309 308 307 309 310 308 307 310 310 307 305 303 308 310 307 309 311 312 311 304 301 302 304 306 306 306 306 305 306 307 307 307
310 311 310 311 311 310 310 310 309 310 309 309 309 309 309 309 309 311 310 309 308 308 309 309 308 308 308 309 309 309 308 306 307 305 305 308 308 310 308 308 315 316 312 314 316 316 314 309 304 303 309 312 311 313 311 309 310 309 309 309 308 308 306 307 308 305 306 305 305 309 311 314 314 312 311 307 302 302 304 305 306 304 304 303 303 304 303 303
310 310 310 311 311 310 310 310 310 310 310 310 310 309 309 309 309 310 312 313 310 307 310 309 308 308 308 308 309 309 309 307 307 305 304 306 308 310 308 306 311 313 311 311 313 315 313 306 303 309 315 313 311 312 308 307 310 310 312 310 306 307 306 306 306 305 310 311 306 307 310 314 314 310 311 310 306 306 303 300 302 301 299 299 299 299 299 299
310 311 311 311 310 310 310 310 310 309 310 311 309 310 309 308 310 309 314 322 314 306 309 309 308 309 307 308 309 309 311 310 307 305 304 306 307 308 309 306 306 309 309 309 308 309 309 305 306 311 312 312 311 308 306 306 309 310 310 308 306 306 306 306 306 306 311 310 305 306 308 309 310 306 306 307 308 308 303 298 299 298 297 298 297 297 297 297
311 311 311 311 310 310 311 311 310 309 311 311 309 310 307 308 311 308 315 326 316 305 307 309 308 308 307 307 308 310 311 309 307 305 303 306 306 306 310 309 308 307 303 306 310 306 307 310 313 313 312 312 310 306 306 305 307 311 309 306 307 306 305 306 305 307 309 308 307 309 308 306 311 309 305 305 305 304 300 298 298 297 297 297 296 296 295 295
311 310 310 310 310 310 311 310 309 310 311 310 310 308 308 311 310 310 321 321 310 306 307 307 307 307 307 307 306 308 308 306 307 306 303 304 305 304 307 307 308 307 300 307 314 305 304 312 312 311 312 310 307 305 306 304 306 313 309 305 305 303 304 305 306 310 308 306 309 313 307 304 310 309 304 302 301 299 298 298 297 296 296 296 295 295 294 294
310 310 310 310 310 311 310 310 309 310 310 310 309 307 309 312 310 316 327 315 305 309 307 306 308 306 305 307 307 305 306 306 305 305 304 303 304 304 304 303 304 306 301 304 313 306 304 307 305 306 309 307 308 306 305 306 308 308 306 305 305 303 304 305 307 312 310 308 310 312 306 303 306 304 300 299 298 297 297 297 296 296 295 295 295 294 294 294
310 310 310 310 311 310 310 311 310 309 310 309 308 309 309 312 317 326 325 310 306 309 306 306 307 304 305 310 311 305 304 305 304 304 304 302 303 303 303 302 302 307 305 304 309 305 301 303 303 305 306 304 307 305 302 304 304 303 306 308 308 306 305 307 308 308 307 310 313 310 305 303 304 302 298 297 298 297 296 296 295 295 295 295 294 294 294 293
310 310 310 311 310 309 310 311 309 309 310 308 308 309 308 314 324 326 314 305 306 307 307 308 305 305 307 308 308 306 305 305 302 304 306 304 303 302 303 304 303 310 313 308 309 306 303 306 305 304 304 302 306 306 303 301 300 301 306 307 306 306 307 312 315 309 304 307 310 307 305 305 305 302 296 296 297 297 296 296 295 295 294 294 294 293 293 293
310 310 310 310 310 310 310 310 310 309 309 309 309 310 314 320 319 314 309 307 306 305 306 307 304 306 307 304 305 305 306 306 303 303 305 305 304 301 302 304 302 307 310 307 308 309 310 309 303 301 302 302 305 307 305 306 305 304 306 307 308 309 308 309 310 308 306 304 304 305 304 304 303 297 295 296 296 296 296 295 295 294 294 294 294 293 293 293
310 309 310 310 309 310 309 309 310 308 308 309 308 311 320 325 312 305 309 311 305 303 303 305 306 305 305 306 306 305 304 304 303 303 302 304 307 303 301 301 301 303 305 304 305 308 311 310 305 304 304 302 304 306 305 307 307 305 306 308 309 309 306 305 305 304 304 303 302 302 303 304 302 296 295 295 294 294 294 294 294 293 293 293 293 293 292 293
310 309 309 309 309 309 309 309 308 308 310 309 310 316 318 314 306 303 309 311 306 303 302 302 305 306 305 306 305 304 306 304 302 304 305 306 309 308 305 303 301 303 304 305 303 303 306 307 307 306 303 302 305 305 304 304 305 305 305 306 309 308 305 305 307 305 304 304 303 301 303 309 306 298 295 294 293 293 292 292 292 292 292 292 292 292 292 292
309 309 309 308 309 309 308 309 308 310 310 307 313 321 316 308 306 306 309 309 306 305 305 301 304 310 311 309 305 302 304 305 304 305 308 308 307 307 306 304 302 302 305 305 302 301 304 305 306 303 300 302 305 304 302 304 306 304 303 306 309 310 307 306 307 305 302 304 305 304 307 310 302 295 293 293 292 292 291 291 291 291 291 291 292 292 291 291
308 308 308 308 309 308 309 310 309 310 309 309 314 316 311 306 305 305 305 304 303 303 306 305 305 311 313 312 312 306 302 304 305 305 307 306 304 304 304 303 301 301 303 304 302 302 303 305 305 302 302 303 303 302 301 303 305 304 303 306 307 304 304 306 307 304 301 303 305 305 306 305 301 296 292 292 291 291 291 291 291 291 290 291 291 291 291 291
307 308 308 309 308 307 309 310 309 309 307 310 315 311 306 303 302 302 301 301 301 300 306 309 305 305 308 310 313 309 304 305 305 304 306 305 303 303 304 302 299 299 300 301 303 303 300 304 306 303 305 305 299 299 300 299 302 307 307 306 304 303 305 306 306 305 305 305 304 303 303 303 303 300 293 291 291 290 290 290 290 290 290 290 291 291 291 291
308 308 307 307 307 307 308 308 308 309 307 312 315 309 303 302 300 300 300 300 300 302 308 308 302 302 305 307 308 308 306 307 306 305 306 305 303 302 304 303 299 298 299 298 302 303 300 305 308 302 303 304 298 298 303 301 300 303 303 303 303 304 306 306 304 304 304 302 301 303 304 302 299 297 293 291 290 290 290 290 290 290 290 290 291 291 291 291
308 308 306 306 306 306 308 307 306 307 308 312 314 309 303 303 301 300 301 300 300 304 307 305 301 303 305 304 306 307 307 306 305 305 304 303 303 302 302 302 300 299 298 298 302 303 300 304 307 303 301 302 301 301 303 303 302 301 302 304 304 304 305 304 303 304 303 301 301 302 303 301 295 293 293 291 290 290 290 290 290 290 291 291 291 291 291 291
309 308 307 306 307 306 306 307 307 310 310 308 308 306 302 303 302 301 302 302 301 303 305 304 303 305 305 304 304 305 306 306 305 306 304 303 304 303 300 300 301 301 298 298 300 301 301 302 303 304 303 302 302 303 301 300 302 304 305 304 303 303 305 303 301 302 302 301 301 300 301 301 295 292 292 290 290 290 290 290 290 291 291 291 291 291 291 291
308 309 307 306 308 307 307 309 308 306 309 307 305 305 303 302 303 302 302 303 303 302 303 305 305 304 304 305 304 303 305 308 306 306 306 304 304 302 300 298 300 300 299 301 302 300 301 302 302 304 304 302 303 302 299 299 300 301 301 300 298 299 300 300 301 302 301 300 300 299 301 300 295 292 291 290 290 290 290 290 290 291 291 290 290 290 290 290
308 310 308 305 308 307 307 310 301 301 309 308 304 304 304 303 302 301 301 302 302 302 302 303 304 304 304 304 305 305 305 308 308 306 305 304 303 302 300 298 299 300 300 302 301 298 299 301 302 304 303 302 304 300 296 298 299 298 297 296 296 296 297 298 300 300 299 299 299 299 300 298 294 291 292 291 291 290 290 290 290 290 290 290 290 290 290 290
306 307 307 306 308 306 308 310 302 303 307 303 301 301 302 302 301 302 302 301 302 303 303 304 303 303 303 302 305 306 304 305 306 305 305 306 304 300 299 298 299 299 300 301 300 297 299 301 302 304 303 301 303 300 296 299 301 298 295 294 295 295 295 297 297 297 297 298 298 296 297 298 294 292 292 292 291 290 290 290 290 290 289 289 289 289 289 289
305 306 306 307 308 306 309 310 307 308 307 302 302 302 301 301 301 303 302 301 303 304 304 305 303 302 302 301 304 306 304 303 304 303 304 305 303 299 298 299 299 298 299 300 299 297 300 303 302 303 303 300 301 301 299 301 301 297 293 293 293 293 293 294 295 295 296 296 295 294 295 297 296 294 292 291 290 290 289 289 289 289 289 289 289 288 288 288
306 307 304 305 307 306 307 305 307 312 312 309 308 305 303 302 302 303 303 301 302 302 303 304 301 302 302 300 304 306 304 302 303 303 303 304 303 298 296 298 298 297 298 298 297 297 300 303 301 302 303 300 300 301 300 300 300 297 293 292 292 292 292 293 293 293 294 294 293 294 295 295 295 294 292 290 290 289 288 288 288 288 288 288 288 288 288 287
308 309 307 307 306 305 304 302 303 311 313 314 312 304 303 304 301 301 302 302 302 301 302 301 300 301 303 303 307 311 307 303 302 304 306 309 308 299 294 297 297 296 297 296 296 298 300 301 301 303 304 302 302 302 300 300 300 297 294 291 291 292 291 291 292 292 292 292 292 294 294 293 293 293 291 290 289 288 288 288 288 288 288 287 287 287 287 287
310 310 308 308 306 305 306 304 302 304 306 310 310 303 303 306 302 301 302 302 302 301 301 300 299 302 305 306 308 310 309 304 301 302 305 307 306 299 294 297 297 296 297 296 296 299 302 303 301 302 303 302 302 300 299 299 297 293 292 291 291 292 291 291 291 291 291 291 292 293 292 292 293 292 290 289 288 288 288 288 288 287 287 287 287 287 287 287
310 307 303 306 307 306 308 306 302 300 301 305 306 302 306 310 305 304 303 301 302 301 301 303 302 302 303 302 303 305 306 305 303 305 305 303 302 301 299 298 296 296 297 296 296 297 300 304 301 299 301 301 300 299 298 297 294 291 290 290 290 291 291 291 290 290 291 291 291 291 291 292 293 291 289 288 287 288 288 287 287 287 287 287 287 287 287 288
307 306 303 305 306 303 303 303 301 300 300 303 306 304 307 310 306 302 301 303 305 302 300 303 305 302 300 299 302 304 304 303 303 305 304 302 300 302 304 301 297 296 296 296 297 294 297 305 303 299 299 298 298 299 299 297 294 291 290 289 289 290 290 290 290 290 290 290 290 290 291 292 292 290 288 288 288 287 287 287 287 287 287 287 287 287 287 288
306 307 304 304 304 301 302 301 301 305 305 304 307 305 304 307 306 301 299 302 305 303 300 302 304 301 298 299 303 305 302 301 302 301 301 301 300 301 302 300 297 296 296 298 298 295 297 303 302 298 299 298 298 299 299 297 293 291 290 289 289 289 289 290 290 290 290 290 290 290 291 291 290 288 287 287 287 287 287 287 287 287 287 287 287 287 288 288
307 306 305 307 304 300 302 300 299 308 313 307 306 305 303 306 305 302 301 301 301 302 300 300 301 301 298 300 305 305 300 299 300 299 299 299 299 299 298 297 295 296 299 300 298 298 299 301 301 299 299 299 298 298 298 295 292 291 290 289 289 289 289 289 290 290 290 290 290 290 291 290 288 287 287 287 287 287 287 287 287 287 287 287 287 288 288 287
307 307 305 308 306 299 298 298 299 308 310 303 302 303 303 303 301 300 303 302 300 301 301 298 299 302 304 304 303 302 299 298 298 298 297 297 296 296 295 294 293 295 298 298 297 297 297 299 300 299 298 299 298 297 297 295 294 294 292 289 289 289 289 289 289 289 289 290 290 290 290 288 287 287 287 287 287 287 287 287 287 287 287 287 287 288 287 287
Wind_Speed
7 8 7 5 4 4 5 5 5 5 5 3 2 2 2 2 3 3 5 6 9 10 12 12 10 6 2 2 1 0 1 3 6 7 6 6 6 5 4 5 4 5 6 7 9 8 8 7 6 6 6 5 3 3 3 3 2 1 2 1 3 3 4 5 6 5 3 4 5 4 5 7 7 8 10 11 13 19 20 23 24 25 29 31 29 25 22 18
8 8 7 5 4 5 6 6 6 6 5 4 3 3 3 3 3 4 5 7 9 10 12 11 9 5 2 2 2 0 2 6 8 9 9 7 5 4 4 4 4 5 6 7 7 8 9 8 7 6 6 4 2 2 1 1 1 2 3 1 4 5 5 6 6 5 3 5 7 9 9 7 10 9 6 6 9 11 12 20 22 24 31 32 32 31 30 27
10 8 5 5 6 6 6 6 6 5 4 3 2 2 1 1 2 4 5 7 8 9 9 8 7 4 1 2 1 1 3 6 9 11 11 8 6 5 5 4 5 6 6 7 7 7 8 9 9 8 7 4 2 2 1 1 1 1 2 2 6 6 5 6 8 8 7 8 8 10 9 7 13 12 6 5 9 9 10 17 16 21 31 30 29 31 33 32
9 6 5 7 8 7 7 6 6 4 3 3 3 3 3 2 2 4 4 5 6 6 8 10 10 8 4 2 1 3 4 5 9 13 12 10 9 8 7 6 7 7 8 8 8 7 7 8 9 8 6 3 2 2 1 1 1 2 4 4 6 4 3 7 8 9 8 8 8 10 8 9 15 12 10 6 7 8 14 23 20 22 28 26 25 27 30 33
7 6 7 9 8 7 7 6 5 4 4 4 5 5 5 4 4 4 3 4 5 7 10 10 10 9 6 2 0 5 5 2 8 12 11 11 10 9 9 9 8 8 9 9 9 7 6 6 7 7 4 2 2 2 1 1 1 1 4 6 5 2 3 9 7 7 9 9 10 10 7 10 13 9 13 11 6 11 20 28 25 24 27 25 22 22 26 31
6 7 9 9 8 7 6 5 5 5 6 6 7 6 6 5 4 2 2 5 7 7 8 9 9 8 6 5 5 8 6 2 7 11 10 11 10 10 9 9 9 8 8 8 8 8 7 7 7 5 3 2 1 1 2 2 1 2 5 5 6 3 5 10 10 9 11 9 9 8 9 12 10 8 11 14 18 25 32 32 31 32 32 29 24 22 24 28
8 10 10 9 7 6 6 5 5 6 7 8 8 8 7 6 3 1 4 7 6 7 8 8 8 8 8 7 7 10 9 5 8 9 9 10 10 10 9 8 8 7 8 8 8 8 8 7 5 4 3 2 2 1 2 5 2 3 4 5 7 7 8 13 15 15 14 13 14 13 12 12 11 9 7 15 29 34 34 33 32 32 29 29 28 27 28 28
10 11 10 8 7 6 6 6 7 7 8 9 9 9 9 7 4 2 5 7 6 7 6 7 8 10 10 8 7 9 11 10 10 8 8 8 8 9 8 8 8 7 8 8 8 8 8 5 5 4 2 1 1 1 3 7 3 3 3 6 7 10 13 17 18 19 17 16 18 14 12 16 17 11 8 21 34 31 28 29 28 26 25 26 27 27 28 30
12 11 10 8 7 7 7 7 8 8 8 9 9 10 10 10 7 4 5 6 7 6 6 8 9 11 11 9 6 7 10 11 10 9 8 7 7 8 8 8 7 7 7 7 8 9 7 4 4 5 2 1 1 2 3 4 3 2 4 8 8 13 17 17 15 15 13 12 13 9 10 17 16 8 10 25 27 21 24 27 27 28 28 29 29 28 27 28
12 11 9 8 7 7 7 8 8 8 8 9 9 9 10 10 8 7 7 7 7 6 7 9 10 12 12 10 8 7 8 10 9 9 8 7 7 7 7 9 9 8 7 8 8 7 6 4 4 6 3 1 1 3 2 1 4 6 8 11 10 15 15 11 12 12 10 9 8 7 11 15 11 1 7 21 22 21 28 30 29 30 31 32 32 31 29 29
12 10 9 7 7 8 8 8 8 7 8 8 8 8 7 7 7 8 9 7 6 6 7 9 11 11 10 13 14 8 9 11 10 10 9 8 8 6 6 9 10 10 10 11 10 8 7 5 6 5 2 3 4 3 1 2 7 8 8 11 10 11 8 8 14 13 9 5 6 9 12 10 4 3 9 21 25 24 29 32 32 32 30 30 29 28 28 29
11 9 8 7 8 9 8 8 7 7 7 7 6 6 6 5 5 7 8 6 5 5 7 8 10 9 7 13 15 11 11 13 12 12 11 9 8 6 5 8 9 9 10 12 12 11 10 8 8 6 4 4 4 1 2 6 8 6 5 6 9 12 5 7 12 10 8 3 7 10 9 7 1 6 15 22 24 25 29 32 32 30 28 26 23 22 22 22
9 8 8 9 9 9 8 7 6 6 6 6 5 5 5 4 4 6 6 5 5 4 6 8 8 8 6 9 13 12 12 15 16 16 13 8 6 5 5 8 7 7 8 10 10 10 11 10 7 6 7 7 2 1 5 7 6 4 5 4 5 10 4 6 11 10 8 2 6 8 4 8 5 11 20 17 19 27 31 32 30 28 26 23 21 19 18 16
8 8 8 9 9 8 7 6 6 5 5 5 6 6 5 5 6 7 5 5 4 4 5 8 7 6 7 7 10 13 12 14 18 20 16 8 5 3 4 6 5 5 5 7 8 8 9 8 7 6 6 9 3 1 5 5 5 4 4 3 4 5 5 9 11 8 7 2 5 6 1 8 10 18 24 17 18 24 26 29 27 26 26 25 23 21 20 17
8 8 9 10 8 7 6 6 5 5 6 6 7 6 5 6 7 5 5 5 5 5 6 7 6 5 5 6 8 12 14 16 19 22 17 11 8 6 4 3 4 5 4 5 5 5 6 4 9 9 6 11 9 3 4 5 5 4 4 4 3 2 5 11 8 4 5 4 5 4 2 8 9 18 27 26 25 23 21 25 23 22 24 24 24 23 23 21
9 9 10 9 8 7 7 6 5 5 6 6 7 8 7 7 6 4 4 5 6 8 7 6 5 5 4 5 8 14 18 18 20 20 14 10 9 8 7 5 5 5 4 4 3 3 5 4 8 12 10 11 9 4 4 5 4 4 3 3 5 3 5 8 5 3 5 4 4 3 2 6 7 17 31 33 30 26 21 22 21 20 21 21 21 21 21 22
10 11 11 9 8 8 7 7 7 6 6 5 6 6 7 6 5 4 4 5 6 8 10 8 4 5 8 10 11 16 20 19 21 17 10 8 8 8 8 6 7 4 3 7 8 7 7 6 5 7 10 7 3 3 5 5 5 4 3 1 4 3 3 6 5 5 8 4 4 3 3 8 10 16 30 31 26 25 21 22 23 21 22 22 19 19 18 19
11 12 11 9 9 10 11 12 11 11 11 10 9 8 7 6 5 5 4 2 2 4 7 11 7 3 6 16 15 14 15 19 23 17 9 7 7 9 9 8 10 4 5 6 8 10 8 6 5 2 5 5 4 6 5 1 3 3 3 2 4 3 3 5 6 5 8 5 4 4 4 11 13 13 22 25 22 21 19 21 23 22 24 23 21 20 18 17
12 12 10 9 11 13 14 13 11 10 11 12 14 14 15 17 17 16 16 15 12 5 3 11 12 4 1 14 16 9 9 17 26 22 12 11 9 9 9 8 11 8 6 3 7 11 8 5 6 4 5 5 4 2 3 4 5 6 4 3 4 5 5 7 7 4 7 7 6 5 5 9 13 13 16 21 22 19 19 22 22 21 22 21 20 19 19 18
13 12 10 11 12 13 11 10 10 9 9 9 10 12 13 14 14 15 22 27 24 15 10 12 13 7 3 12 17 13 8 13 26 27 19 16 12 8 9 7 9 14 8 1 3 8 7 6 5 2 5 6 5 4 5 3 2 4 2 3 5 5 7 7 6 5 6 6 6 3 4 9 13 13 12 16 18 14 15 20 21 20 18 17 17 16 16 16
13 11 10 11 11 11 11 12 13 14 13 9 7 9 8 6 5 7 13 19 20 18 18 18 15 11 8 12 19 19 12 13 26 31 23 20 13 6 10 9 7 10 6 2 0 4 6 7 2 6 7 6 5 4 4 3 1 2 1 4 5 3 8 9 4 3 6 5 5 2 6 12 13 11 10 11 11 10 11 14 17 17 13 12 13 12 12 11
13 11 11 11 10 11 12 13 15 17 16 13 11 12 12 8 7 7 9 11 12 14 16 19 20 18 13 11 16 21 22 20 25 32 29 22 16 9 9 10 6 4 6 4 2 4 6 3 6 7 4 3 3 2 1 2 1 1 1 2 5 3 6 9 3 2 6 3 5 6 6 12 13 10 10 6 5 8 12 12 14 14 11 11 11 9 8 8
13 11 11 11 11 11 12 12 13 14 16 16 15 16 13 9 6 5 6 6 8 13 15 18 22 24 20 14 14 19 25 21 19 30 33 24 18 13 9 8 5 4 6 5 4 3 4 2 5 4 4 4 4 5 6 4 3 1 1 2 5 4 3 5 3 6 9 2 4 7 6 8 8 7 7 4 5 10 13 14 13 13 16 17 14 12 14 14
13 12 11 11 12 12 10 10 8 10 14 16 16 17 13 10 6 1 2 2 4 12 17 17 20 25 22 17 15 13 18 18 17 28 30 23 17 10 5 5 4 4 5 4 6 6 1 4 5 5 6 5 3 5 7 6 6 3 4 2 5 6 2 5 6 9 9 2 2 6 7 5 4 6 6 5 11 13 14 18 21 26 33 32 28 31 38 39
13 12 12 12 12 11 8 7 4 6 10 13 14 16 14 10 7 0 1 2 3 11 17 14 15 21 21 19 16 6 8 14 18 25 25 19 15 6 3 5 4 4 4 1 5 4 1 5 6 5 5 7 4 4 4 3 5 5 4 5 6 7 6 7 7 8 6 3 3 6 5 5 4 5 6 6 10 11 12 19 29 38 44 45 44 46 51 53
12 13 14 13 11 9 6 4 1 3 6 9 12 15 14 10 6 2 2 4 3 8 13 12 11 15 18 21 18 5 4 8 12 22 23 15 12 6 3 5 4 3 2 1 2 1 1 4 5 4 4 6 6 3 1 3 5 6 3 4 5 6 8 8 5 4 3 3 4 4 3 5 5 4 5 6 7 9 13 19 29 38 41 43 46 48 50 51
14 14 14 12 9 6 3 1 1 1 3 8 12 14 13 10 4 1 2 6 4 5 8 10 9 11 13 18 19 6 1 10 9 19 25 13 10 9 4 3 3 3 2 2 3 1 1 6 7 5 5 6 6 5 2 3 3 5 3 1 7 9 9 6 2 0 2 4 5 4 3 2 5 5 4 8 10 13 18 20 24 33 37 41 43 44 46 48
15 15 13 10 7 4 1 1 2 4 4 9 12 14 13 8 1 2 4 5 4 5 5 8 7 10 11 11 16 11 2 9 7 14 23 15 9 9 6 2 2 0 3 4 2 2 1 4 5 4 6 5 3 5 3 3 0 7 5 5 8 7 4 2 1 1 1 3 5 4 2 1 5 6 6 12 14 16 18 17 18 26 33 37 40 42 45 47
16 14 11 7 5 3 1 0 3 5 5 9 12 14 11 6 1 1 6 3 3 5 4 7 7 11 15 9 12 14 7 8 8 11 20 20 12 7 5 3 2 1 5 5 4 4 2 0 1 2 3 2 4 6 3 5 3 8 7 6 3 1 2 2 3 2 2 3 3 5 2 2 5 6 9 11 12 13 13 11 12 21 29 32 36 41 45 49
14 11 8 6 4 2 1 0 2 3 5 9 13 13 9 5 3 4 6 1 2 5 7 8 6 11 17 9 8 14 9 7 11 13 17 22 23 16 6 4 6 3 4 6 3 3 2 0 1 2 1 3 5 7 3 6 5 8 7 6 4 4 3 3 2 3 3 2 5 6 1 3 2 4 8 6 5 7 9 9 12 19 27 30 34 38 41 44
10 8 7 5 4 1 1 2 3 4 8 12 13 12 6 4 5 6 3 2 1 5 7 5 5 7 11 6 4 11 7 6 13 13 11 14 20 21 11 5 7 6 5 7 6 6 5 1 1 2 2 2 4 5 2 2 3 5 5 4 6 6 4 4 4 4 3 5 6 5 3 2 2 1 5 4 3 5 7 10 12 17 24 30 33 36 38 40
8 7 7 6 6 6 7 7 8 9 12 13 11 7 2 4 5 3 1 4 2 3 3 2 4 6 6 4 3 6 5 6 9 8 4 4 7 10 9 4 4 5 6 5 6 7 4 2 4 3 0 1 3 4 5 4 4 6 5 5 5 5 5 5 5 3 1 6 5 4 3 1 2 3 1 3 5 7 8 11 14 18 24 30 32 34 37 38
7 5 5 6 7 10 11 11 11 11 11 8 5 1 5 6 3 1 3 3 1 2 2 2 4 5 4 5 5 5 3 3 7 6 2 2 4 4 5 4 3 3 3 3 3 6 5 5 6 4 1 2 2 3 5 5 6 6 3 3 3 3 5 6 5 3 5 7 5 4 2 3 1 4 1 2 5 8 12 16 18 22 27 31 33 35 38 39
5 3 4 6 8 10 10 10 10 9 6 2 3 5 9 6 1 1 2 3 1 3 3 2 6 6 3 3 4 5 3 2 6 7 4 4 5 5 5 6 7 4 1 2 2 3 5 6 5 3 2 5 3 1 0 3 4 3 2 3 2 2 1 4 4 3 7 9 6 2 1 4 2 3 4 1 4 11 17 19 21 25 29 31 31 33 37 40
2 2 5 6 7 8 8 7 5 3 4 5 8 8 7 2 3 1 2 4 2 4 4 3 5 5 4 3 4 3 3 3 5 5 5 4 3 3 3 4 6 4 3 3 1 1 3 5 7 3 4 4 2 1 1 1 3 2 2 2 2 2 3 2 4 5 4 6 6 3 2 4 3 6 3 2 8 16 23 27 29 32 36 35 32 34 38 40
2 2 4 4 5 6 5 2 5 6 7 9 11 6 2 2 2 2 0 3 2 3 5 5 5 5 5 5 5 5 3 2 4 5 4 2 1 1 1 1 3 4 3 2 1 0 2 6 9 7 6 2 1 3 2 2 2 1 1 1 2 4 5 1 4 2 1 4 5 2 4 4 1 3 7 13 16 20 24 29 32 34 40 39 34 36 39 40
7 7 7 5 7 11 10 11 12 10 9 13 10 2 2 1 1 1 2 3 1 1 3 4 3 3 4 4 4 8 6 3 4 5 3 2 0 0 1 0 0 2 1 3 1 1 2 5 8 5 5 5 3 4 4 1 1 1 2 4 2 1 3 2 2 4 4 5 5 3 7 7 1 2 8 15 18 19 17 21 27 32 37 36 33 35 37 39
13 15 16 13 11 10 10 11 8 10 13 16 7 2 2 1 2 2 3 3 1 2 6 3 1 1 1 2 4 7 6 5 5 5 3 3 2 1 2 1 1 3 2 2 1 1 2 3 7 2 4 9 6 4 4 3 1 2 3 3 2 2 3 2 1 3 4 7 6 4 9 6 2 3 7 12 16 18 17 19 21 26 31 31 31 32 34 36
8 10 15 16 13 12 9 5 8 12 15 11 2 2 2 1 3 4 4 3 0 2 5 1 1 2 1 1 2 4 4 3 4 4 2 2 3 0 3 1 0 3 4 2 3 1 1 1 6 5 4 7 6 4 4 6 3 2 3 3 2 2 4 2 2 1 2 8 8 5 7 4 2 2 4 7 12 17 18 17 17 21 26 28 30 32 33 34
4 6 11 11 11 16 12 10 17 19 13 4 3 2 1 1 3 4 5 4 1 3 2 1 1 2 2 2 1 2 2 1 1 2 1 1 3 2 3 2 1 4 5 2 2 1 1 1 3 6 5 4 4 2 4 5 4 4 4 4 5 3 1 2 2 2 1 6 6 5 8 5 2 2 1 6 10 13 14 14 15 21 26 29 32 35 36 38
6 6 8 10 9 7 7 14 19 15 6 2 3 2 1 2 2 4 6 5 4 4 2 2 2 1 1 2 2 1 2 2 1 1 2 1 2 2 3 3 1 4 4 3 3 2 1 1 2 6 6 5 6 5 1 0 1 2 3 4 5 3 2 4 5 2 1 3 4 7 10 5 2 1 2 4 6 10 15 17 16 20 27 30 34 38 40 40
10 5 6 14 12 4 10 14 12 6 4 4 3 2 2 2 2 4 6 4 3 3 3 3 2 1 2 1 2 1 2 2 2 1 2 2 3 2 2 4 4 4 3 2 2 1 0 2 1 6 5 6 12 6 3 4 7 9 6 4 4 2 4 2 6 5 4 7 7 7 8 4 2 3 1 5 13 21 26 27 23 26 33 35 37 40 40 40
16 10 8 9 7 8 16 12 7 6 5 2 2 4 4 3 3 4 5 5 3 2 3 2 0 1 1 1 1 1 2 2 3 2 2 3 3 3 2 5 7 5 3 1 2 2 1 2 2 6 6 6 10 4 5 5 6 9 6 6 5 2 0 4 5 4 4 6 6 4 6 4 3 5 5 15 25 30 31 32 32 33 37 39 40 41 40 42
21 20 19 13 3 7 12 6 2 4 2 2 5 5 5 5 6 4 3 5 4 1 2 1 0 1 1 1 1 1 2 2 2 2 2 2 3 3 3 4 7 6 3 1 1 3 2 0 2 4 7 8 8 7 5 3 3 6 4 5 5 3 4 2 2 2 2 4 10 6 7 6 4 3 9 18 23 25 28 36 38 36 36 39 41 41 41 43
15 17 24 23 17 17 14 8 8 6 2 3 5 4 4 5 5 5 3 4 4 2 1 1 2 1 1 1 1 2 2 1 2 2 3 2 3 3 6 5 4 5 3 0 0 1 1 1 2 3 3 7 8 8 9 8 5 3 3 5 6 7 9 5 2 2 3 8 13 8 7 11 12 8 11 16 18 21 27 35 39 39 41 42 43 44 45 47
7 6 11 19 25 27 21 13 10 7 3 4 4 3 3 2 2 4 3 3 5 3 2 2 3 2 2 4 4 4 2 1 2 2 3 4 4 3 8 7 4 5 4 2 2 1 2 0 2 5 4 6 7 9 10 7 4 2 5 8 6 5 7 5 3 3 7 10 10 8 12 18 18 12 11 15 18 19 22 28 35 40 43 45 47 48 49 50
7 3 2 6 13 18 17 13 11 7 3 3 3 2 3 2 3 3 3 2 5 4 1 2 4 3 2 5 4 3 5 3 3 2 3 3 4 3 7 7 6 6 5 3 3 3 3 2 3 6 7 8 8 12 11 5 5 2 6 8 7 6 6 6 5 5 9 9 8 12 18 21 17 13 12 16 18 17 18 25 33 38 41 44 47 48 50 50
7 4 5 5 3 4 7 9 11 12 7 4 3 1 3 4 3 2 2 3 4 4 3 2 5 5 1 2 3 2 5 6 4 3 2 3 4 4 6 5 6 9 9 5 4 4 3 3 3 4 7 9 9 13 8 4 5 4 7 8 9 7 6 6 6 8 9 9 11 17 23 22 16 12 12 17 20 20 24 31 36 39 42 45 46 47 49 47
13 9 8 9 7 5 5 4 8 13 10 6 4 2 2 3 2 1 2 3 3 5 6 3 5 7 2 1 1 1 3 3 5 5 2 3 5 3 4 3 3 10 13 6 3 4 2 3 4 2 6 8 7 9 3 6 5 4 7 8 10 10 10 9 8 10 12 13 16 20 23 20 11 10 14 23 30 31 34 39 41 42 45 45 45 46 45 41
12 11 11 16 14 9 7 4 5 8 7 6 4 2 1 2 1 3 1 1 2 5 6 3 6 7 1 2 2 2 4 3 5 6 2 2 5 2 1 2 1 8 12 5 2 5 4 4 4 2 7 9 4 2 2 7 7 4 6 10 14 15 15 13 10 10 12 15 18 19 20 13 8 13 21 31 37 35 34 39 41 43 48 48 46 46 42 38
18 17 17 17 10 8 7 4 3 5 4 5 3 0 1 1 1 2 1 0 1 2 3 3 5 5 2 1 3 6 9 6 8 11 9 7 6 2 1 1 1 5 8 3 2 5 4 4 5 5 6 9 7 9 8 3 8 5 6 12 15 14 14 13 12 12 14 18 20 18 13 7 8 17 23 28 33 31 31 37 39 42 50 51 45 41 38 41
19 17 13 12 7 7 7 4 4 5 2 2 2 1 1 1 2 1 1 2 1 2 3 3 3 3 3 3 6 11 16 16 15 18 17 14 11 9 9 7 3 3 2 1 2 2 2 2 5 4 5 9 10 14 13 4 2 0 3 7 11 14 16 16 14 13 15 16 15 12 8 7 14 20 20 22 24 26 31 38 40 42 49 51 43 36 39 48
Wind_Direction
151 152 149 142 128 115 109 99 91 91 94 104 120 155 212 239 259 296 309 317 327 329 329 328 323 317 296 258 260 103 61 27 358 1 19 16 351 322 312 317 325 312 299 293 294 294 295 305 298 281 283 293 299 292 294 284 238 159 108 121 258 212 207 199 192 210 190 261 274 294 264 225 263 264 251 266 254 252 259 256 249 246 247 251 254 255 258 263
150 150 148 133 121 114 106 98 94 93 96 110 131 161 198 230 263 293 304 312 323 327 329 330 326 313 260 232 231 219 29 20 9 20 30 15 350 332 327 325 333 320 310 305 307 319 322 332 337 321 315 327 335 315 297 239 185 132 121 159 245 207 214 208 203 224 215 272 274 290 290 237 252 269 262 267 261 260 265 262 252 248 252 255 257 254 254 256
153 152 147 128 121 116 107 101 95 92 94 100 113 129 156 242 272 289 302 315 327 339 348 1 20 35 130 191 208 336 6 13 15 22 20 8 358 345 339 339 345 340 337 334 332 338 338 343 346 346 344 348 359 338 338 210 220 177 143 246 247 215 239 246 241 248 249 277 285 296 299 258 266 270 252 259 284 285 257 260 250 242 255 264 266 257 251 251
156 152 139 128 123 116 108 102 98 92 85 72 65 63 51 12 326 310 312 334 354 22 41 48 54 62 87 145 209 318 328 359 16 16 10 2 356 348 349 350 351 357 355 346 341 335 336 349 342 343 352 342 344 331 246 214 240 194 160 212 235 195 264 272 261 264 268 282 284 293 308 291 284 271 243 254 303 288 258 266 262 253 266 278 279 268 255 250
153 143 131 125 118 110 106 102 97 87 80 73 61 50 36 15 354 337 340 24 52 63 61 60 61 67 74 90 360 334 330 348 6 10 7 1 355 348 353 354 354 1 1 352 345 331 321 333 328 336 355 329 347 356 248 187 180 234 213 234 254 185 259 288 289 283 281 286 287 293 300 288 291 270 244 241 240 259 275 284 282 279 283 285 285 280 266 254
143 133 126 121 113 111 108 99 89 86 82 70 56 43 29 10 354 355 58 82 83 74 64 60 55 52 44 40 33 12 29 68 358 8 6 360 358 352 353 356 355 356 357 350 341 332 318 322 326 344 10 347 336 287 281 310 207 252 272 286 301 263 253 294 303 297 291 282 278 282 284 284 289 286 262 241 238 262 285 293 289 291 291 286 283 276 269 260
134 128 125 121 119 117 104 94 94 92 79 63 53 44 30 8 350 29 96 103 97 79 69 55 39 24 11 11 14 20 45 50 5 10 4 360 360 352 350 347 345 342 344 341 337 339 330 330 342 1 20 1 314 237 322 318 273 212 270 305 317 294 272 293 300 296 290 274 274 278 280 279 269 281 286 258 263 276 292 296 294 296 296 290 282 275 270 266
132 130 130 128 124 110 97 100 100 88 71 60 55 48 41 31 27 81 112 113 98 81 65 39 25 13 5 4 9 26 35 25 12 12 2 358 352 350 350 341 334 329 338 340 343 348 343 349 5 5 13 353 298 242 353 332 312 165 236 288 303 298 292 299 303 299 289 274 280 281 268 266 265 274 278 272 281 294 302 302 305 308 308 300 292 285 276 269
134 136 136 128 114 100 101 106 97 82 66 60 58 52 50 49 55 86 113 111 89 74 46 28 19 14 15 14 26 37 24 14 9 3 359 349 341 354 4 357 353 344 346 347 344 347 349 4 13 359 328 284 330 325 4 5 328 210 259 296 295 296 302 310 311 308 299 280 283 279 264 271 274 289 277 277 293 313 314 311 312 311 310 307 304 299 289 277
140 139 131 117 104 103 108 104 90 76 65 61 58 54 57 63 71 88 101 100 81 63 38 26 17 21 24 28 51 48 18 19 9 354 352 342 333 352 12 14 18 15 14 10 358 357 3 12 358 343 321 329 353 319 335 76 294 283 294 293 285 297 306 330 335 334 322 293 290 274 267 277 280 304 271 290 311 321 317 315 312 311 308 307 305 302 298 288
139 131 121 107 102 109 109 101 86 72 64 56 55 57 63 71 80 94 101 94 78 58 38 25 22 31 33 41 60 54 24 30 18 5 359 348 343 346 9 19 24 29 31 30 24 23 30 27 5 351 340 328 318 300 268 325 302 290 316 300 297 325 330 1 355 351 352 319 314 289 272 288 290 178 257 300 321 322 317 316 316 317 313 312 310 306 302 293
133 123 109 101 106 112 107 95 78 65 54 47 53 58 63 75 93 110 111 98 83 58 31 22 26 35 38 44 54 46 34 34 23 15 0 343 347 344 3 13 16 29 33 36 35 32 33 24 18 31 40 337 310 5 312 324 312 281 6 334 317 357 4 6 3 349 357 335 324 321 298 323 132 221 284 311 328 327 323 322 324 328 326 327 325 318 312 302
128 113 102 106 113 112 101 82 68 60 53 54 56 60 67 77 113 123 115 96 77 49 22 19 25 37 47 46 48 46 39 31 20 14 360 339 335 332 350 356 358 22 27 32 33 27 23 16 26 52 39 10 296 344 312 314 328 297 22 38 335 360 334 353 5 338 348 333 323 356 324 314 280 274 305 325 337 332 328 328 334 338 340 344 342 337 333 324
121 108 108 115 117 108 90 70 64 67 70 70 60 67 77 82 114 120 99 74 49 25 18 22 26 45 60 59 51 43 31 22 15 9 4 4 10 357 347 334 336 10 15 22 22 14 10 14 41 52 27 15 346 285 327 341 10 337 353 38 30 9 292 328 349 338 6 358 328 21 246 286 295 302 317 328 334 334 325 326 337 344 350 353 351 350 346 345
117 112 116 120 115 98 77 62 66 81 81 72 60 67 81 94 114 109 63 39 25 15 13 21 30 47 61 56 41 27 18 15 10 7 5 14 32 39 33 7 4 16 8 11 7 358 360 24 52 44 15 14 24 45 4 353 12 21 9 342 350 4 290 315 331 19 28 305 318 43 239 282 286 297 316 326 329 335 325 322 336 345 352 355 351 351 347 347
120 119 122 120 107 86 71 66 75 78 68 65 71 77 89 104 111 96 58 45 42 32 24 25 37 51 51 30 22 17 15 13 8 7 6 15 28 29 25 30 34 22 15 36 42 20 25 50 56 43 31 24 31 59 42 9 350 11 37 293 288 319 321 316 312 43 30 318 327 39 230 285 284 293 315 326 331 334 330 325 334 345 352 357 352 350 347 345
126 126 127 118 99 83 76 80 81 74 66 71 88 92 96 98 91 83 67 64 66 45 39 42 47 72 52 29 18 13 16 15 10 11 15 24 30 21 21 47 52 48 100 78 60 47 46 54 64 41 36 39 27 68 60 12 325 327 18 317 277 270 302 318 304 351 25 30 325 334 223 261 274 289 306 319 331 332 330 328 335 346 354 1 3 359 356 351
132 133 130 114 97 92 92 91 84 78 76 80 93 98 94 84 76 71 51 49 56 22 31 33 35 109 40 17 11 6 17 22 18 22 31 32 32 21 33 53 40 49 147 91 45 39 45 46 64 57 27 31 14 51 75 301 260 271 311 309 303 286 243 277 281 329 18 15 296 306 275 271 281 290 300 315 331 332 329 333 339 351 360 6 14 16 19 18
139 137 126 109 105 105 99 91 80 75 78 87 94 94 90 86 82 75 70 68 65 61 33 25 36 105 344 4 7 1 16 25 23 28 34 32 28 22 39 45 29 55 114 89 24 28 37 37 46 41 358 345 338 69 162 221 204 219 244 213 260 287 269 260 260 301 8 344 292 278 283 285 295 300 301 314 328 334 337 343 346 353 4 12 20 26 31 34
140 134 119 113 118 111 96 85 78 78 83 92 98 94 91 85 79 70 67 68 68 70 65 44 43 59 18 5 13 17 21 28 26 26 27 21 13 19 35 33 39 56 67 82 4 16 37 59 41 323 279 282 273 232 221 252 205 206 236 226 244 265 278 281 268 292 2 344 278 262 306 291 290 290 288 308 324 340 348 345 344 350 6 19 25 28 30 35
138 130 121 122 126 110 94 91 83 77 76 81 95 89 75 66 79 75 66 68 68 67 61 52 46 42 30 14 18 22 23 27 25 24 25 16 13 28 27 27 51 46 14 299 359 355 44 68 347 256 242 260 276 253 240 266 234 205 253 265 281 256 267 291 293 304 10 11 282 333 350 299 289 290 295 316 331 343 348 341 335 341 3 25 27 26 26 29
137 130 125 128 131 116 106 101 86 75 70 70 78 73 61 61 89 97 87 83 70 62 55 43 40 37 32 25 22 24 27 25 16 16 16 16 30 48 28 35 55 20 345 6 47 4 36 45 283 274 264 291 340 46 43 300 274 315 343 319 313 297 281 304 338 6 360 10 284 326 341 296 291 294 297 313 328 332 350 352 336 334 346 8 18 19 19 16
139 134 135 139 140 131 121 109 90 75 64 59 59 56 52 50 67 103 106 106 73 49 38 30 29 26 25 25 16 25 37 33 7 3 6 11 28 38 35 44 50 11 359 24 93 78 39 315 299 342 10 355 351 30 37 3 359 299 293 347 311 319 342 309 323 345 332 285 254 304 306 284 301 319 301 299 336 345 4 8 359 353 346 342 344 347 351 350
144 142 146 150 148 142 133 119 97 70 52 44 45 40 35 34 35 152 172 124 77 30 24 22 19 18 18 14 6 23 46 40 14 2 2 8 17 24 39 41 47 29 355 22 85 101 192 288 342 21 34 30 350 358 28 17 352 300 226 227 290 304 277 247 286 326 328 299 253 325 326 297 334 352 311 318 350 355 12 15 10 9 4 360 0 3 5 3
149 149 153 153 151 149 142 132 103 59 38 31 30 22 20 23 19 346 195 93 51 2 9 14 13 14 9 5 6 25 54 38 21 3 360 12 17 17 41 29 45 18 326 336 56 60 301 316 350 12 23 35 35 5 23 37 354 323 242 218 258 290 278 267 299 329 352 356 339 22 8 297 321 347 299 315 346 347 6 18 14 11 15 18 17 16 13 11
151 153 154 153 156 157 153 150 90 21 19 15 9 6 8 7 11 73 107 71 38 342 355 3 5 8 5 4 1 5 55 18 10 5 6 18 22 31 41 9 41 19 309 199 41 49 325 348 31 63 41 28 32 14 325 89 32 331 255 207 256 299 300 301 327 350 5 306 306 54 100 266 318 337 298 319 342 352 10 22 20 16 19 22 20 18 15 13
153 154 156 156 162 165 163 205 265 264 345 353 352 355 357 356 8 135 69 47 22 330 348 354 354 2 5 8 8 39 87 333 349 12 13 19 23 43 68 352 36 27 326 92 38 32 299 351 21 44 41 33 21 355 273 121 46 295 244 348 310 308 301 299 336 115 248 286 315 27 110 231 302 297 310 357 9 16 22 23 18 16 17 18 17 15 13 11
158 158 157 156 165 178 190 292 238 235 301 333 342 347 349 357 18 168 88 70 345 328 351 343 343 359 4 18 28 58 78 340 0 9 11 27 24 35 64 34 143 322 358 98 86 311 296 349 355 9 24 21 351 319 268 146 135 266 264 315 303 297 286 251 148 182 261 340 324 327 39 277 281 291 352 22 24 16 19 21 15 12 13 14 13 10 10 10
161 160 158 156 165 177 164 253 252 248 293 323 336 341 346 6 31 75 74 97 309 339 350 344 346 348 352 9 31 34 33 17 21 355 14 37 31 34 75 20 83 155 3 84 138 278 280 260 291 98 59 331 288 291 245 162 230 281 298 312 310 32 46 92 101 102 36 21 288 281 355 14 298 331 15 24 23 8 3 15 15 12 12 12 10 7 7 9
161 162 162 160 160 140 122 257 268 263 308 323 330 335 345 18 51 62 50 59 304 339 329 349 348 334 347 360 10 11 16 17 8 2 19 35 35 44 75 358 28 77 357 32 80 279 295 199 208 141 164 270 298 303 242 181 252 316 343 335 345 21 38 54 69 83 44 338 256 253 186 80 312 8 41 30 5 347 347 2 7 8 9 9 8 6 5 6
160 170 177 183 193 194 318 302 297 302 314 320 324 328 340 18 55 91 69 290 298 342 337 349 337 340 7 28 349 350 355 350 2 15 18 21 30 34 38 4 5 32 12 3 3 341 356 59 273 285 250 294 334 328 313 195 277 344 8 351 343 341 5 16 356 33 32 291 263 243 197 135 249 300 49 39 355 344 354 6 2 1 3 3 3 2 2 2
169 184 197 219 244 268 291 292 296 302 310 320 321 316 351 35 33 92 301 315 330 349 347 312 321 351 8 15 337 327 336 341 357 30 36 12 34 29 34 43 346 5 14 356 348 347 348 253 297 332 272 345 354 339 340 347 357 3 7 24 16 346 357 355 334 359 289 266 251 211 236 283 175 174 41 26 16 359 5 11 4 358 358 358 357 357 357 358
179 194 214 252 276 286 292 292 297 301 306 323 335 355 79 72 44 250 280 330 360 325 312 270 311 342 346 358 351 323 339 348 348 14 39 58 63 27 24 38 23 26 2 349 358 349 333 300 330 10 38 360 40 18 352 330 344 356 7 50 43 12 359 327 309 323 298 280 254 194 228 289 167 147 174 18 16 7 13 14 8 4 359 355 353 354 354 355
188 211 257 285 297 297 299 295 295 298 293 315 79 66 67 81 191 256 285 275 289 333 351 335 324 342 21 27 344 336 6 339 348 12 4 22 40 10 360 6 20 57 79 31 30 360 356 323 331 27 329 331 9 71 317 275 310 321 191 136 84 94 20 292 269 279 301 300 294 283 215 253 230 154 172 172 12 13 16 12 7 4 0 355 352 353 353 353
185 295 302 304 301 303 310 299 285 265 205 131 81 60 76 124 235 190 257 267 314 335 324 355 3 8 10 338 324 13 50 320 342 27 22 29 45 1 358 342 356 43 76 35 324 360 28 288 275 323 305 292 321 265 191 360 325 283 182 93 25 187 175 244 231 223 274 297 299 300 243 242 167 139 121 25 8 12 10 6 3 0 357 354 353 354 353 351
43 329 326 312 316 346 5 76 124 146 168 119 73 50 132 180 225 153 309 321 18 336 321 354 26 29 349 322 331 4 31 298 340 19 22 51 133 304 357 278 333 30 76 92 276 352 47 283 286 336 328 237 184 286 278 2 319 303 8 319 265 178 150 196 274 283 12 274 279 293 278 297 144 129 23 15 6 6 5 1 359 355 354 353 351 352 350 347
79 70 54 48 40 44 68 99 118 138 121 89 76 73 198 176 90 127 9 8 355 344 39 30 19 26 348 321 322 336 345 343 359 14 6 12 30 279 41 244 8 42 107 161 250 253 147 285 296 329 313 284 308 310 289 273 163 73 320 270 264 90 105 111 281 338 359 269 272 301 284 294 254 272 360 16 6 359 357 354 352 350 351 351 347 346 344 342
77 65 55 51 49 54 76 90 125 150 98 74 77 126 132 15 28 30 12 32 334 20 60 59 360 61 33 338 311 318 342 358 359 3 350 347 342 149 106 11 94 53 9 174 210 277 147 297 297 267 271 292 319 357 329 310 180 175 269 277 34 16 317 4 334 317 318 280 280 289 280 283 182 271 344 9 3 355 348 347 347 345 347 345 341 339 336 335
58 49 41 36 49 62 66 94 140 128 91 73 86 105 80 22 40 31 14 15 309 65 63 43 328 26 47 58 300 306 342 355 341 353 16 5 332 153 107 50 234 18 353 160 163 288 93 355 292 276 277 301 338 22 343 320 320 337 323 322 13 178 224 283 292 225 281 281 284 289 284 286 167 235 331 0 359 354 345 343 343 339 339 337 334 334 331 330
50 48 32 31 66 71 71 106 103 88 76 85 150 107 31 59 52 25 22 24 40 73 69 225 33 12 342 9 301 292 342 340 298 322 339 357 322 327 74 82 294 342 349 81 117 337 12 90 274 286 313 342 342 319 307 317 318 331 347 352 347 335 238 294 282 156 238 278 288 297 287 282 191 192 15 6 353 348 339 336 335 333 333 332 332 334 331 329
73 68 36 45 67 69 85 89 74 63 62 84 95 79 23 87 69 18 28 45 62 69 107 154 101 90 265 347 331 270 304 308 292 274 277 313 312 327 28 69 33 347 3 40 41 9 350 131 256 296 334 345 294 264 246 192 118 17 9 21 358 344 29 338 302 304 3 291 291 296 291 286 171 163 36 5 334 337 339 336 330 331 334 333 332 332 330 328
73 64 22 45 51 72 105 79 41 33 84 68 50 61 61 87 61 23 24 36 52 52 78 115 94 122 177 250 283 254 299 295 272 277 266 241 224 251 2 41 32 7 28 34 325 311 100 112 277 284 280 276 278 289 68 112 108 82 60 34 16 32 68 6 286 305 322 294 293 295 296 299 189 215 291 360 345 343 342 340 337 335 334 332 329 327 326 325
67 52 15 29 46 91 96 77 15 31 69 88 104 66 53 72 55 25 18 23 25 21 39 65 51 51 176 227 260 259 298 263 228 279 293 242 255 294 340 32 22 10 43 45 310 340 29 84 7 298 283 274 276 300 74 108 108 84 51 28 49 59 305 213 233 307 299 292 323 307 288 296 202 223 327 356 349 342 340 341 339 333 329 327 325 324 323 322
70 56 41 37 76 111 91 89 90 69 56 116 86 48 42 65 50 26 18 15 10 30 52 24 304 11 291 191 125 257 309 339 255 292 323 241 267 340 11 33 22 23 52 99 326 359 344 285 41 345 330 334 328 338 359 347 57 83 58 29 55 29 335 260 234 332 266 323 342 313 276 297 282 293 351 352 343 336 337 338 333 326 323 323 323 322 320 320
72 58 48 53 81 97 88 100 120 113 142 98 65 18 25 56 43 38 49 37 31 57 68 334 291 313 323 37 34 320 335 6 283 316 356 288 261 23 28 13 21 37 39 44 271 340 282 230 92 77 346 324 326 324 317 321 356 67 64 19 23 22 15 10 337 335 321 325 323 296 273 298 305 328 349 342 335 334 335 333 328 324 324 325 324 322 320 319
75 62 44 52 70 79 79 86 101 108 136 105 66 16 30 50 19 28 43 52 36 36 60 9 323 300 5 31 22 331 305 265 299 320 326 291 268 10 24 18 37 50 31 12 358 16 85 234 207 163 190 260 273 280 294 329 12 7 358 3 5 14 17 19 19 344 319 309 299 285 291 299 306 326 341 334 332 333 330 327 324 324 324 323 322 320 319 318
75 56 17 42 58 64 63 60 70 88 125 115 94 16 12 346 320 1 24 38 19 12 68 35 22 35 9 18 29 324 305 327 346 306 276 274 270 325 18 36 56 39 18 360 351 31 69 320 258 192 214 245 262 278 296 11 68 49 16 4 349 350 6 21 15 319 307 305 297 298 301 301 307 323 332 331 330 329 324 319 318 319 319 318 318 317 317 317
84 86 70 77 66 44 47 46 61 77 78 79 105 82 17 13 360 6 350 342 1 16 21 5 20 35 13 2 39 325 319 340 334 300 292 325 325 340 3 39 63 30 10 357 360 52 103 271 262 199 238 255 260 273 289 80 104 86 48 12 350 346 346 352 331 302 304 301 290 298 303 302 308 323 331 329 326 321 315 312 314 316 316 316 317 317 316 315
102 101 74 81 93 90 93 75 68 73 60 47 72 61 49 54 27 282 280 331 352 9 24 16 344 355 349 195 94 321 325 342 315 304 303 337 341 352 341 340 51 20 10 10 8 47 90 266 266 238 284 285 260 261 241 130 134 87 53 15 1 354 339 337 318 302 306 297 288 298 302 298 307 331 328 322 319 315 311 313 317 318 317 317 317 315 313 314
109 110 103 102 91 65 66 59 58 73 49 30 61 43 45 116 6 296 267 31 355 347 17 16 320 330 345 174 177 249 262 221 247 268 251 331 331 343 320 281 290 354 3 18 351 14 29 310 306 358 323 311 301 325 83 139 142 101 50 16 7 357 344 338 325 315 312 302 298 300 298 294 317 330 320 316 317 316 314 316 319 319 317 317 316 313 313 315
111 117 118 109 81 22 32 35 37 78 38 13 62 88 315 131 267 291 275 149 82 346 356 343 316 328 357 320 230 261 284 275 253 265 273 281 285 260 282 345 16 349 356 13 331 360 26 324 326 15 342 313 329 352 352 115 138 114 45 20 8 354 340 330 325 325 316 307 306 304 296 294 318 319 315 314 317 317 314 315 317 316 315 314 312 311 314 318
113 121 121 107 81 13 23 23 19 62 68 357 53 146 360 320 253 246 20 304 329 349 325 322 324 335 348 327 304 304 311 309 294 288 285 272 258 256 267 277 292 295 297 39 329 335 63 353 328 355 332 311 329 343 335 324 143 105 38 34 9 350 337 326 322 320 310 305 307 305 298 311 319 320 320 318 318 316 311 312 314 313 312 310 310 313 317 319